RYR43CY EGSS-LECH

Flight info

Callsign RYR43CY
Flight time 2h 13m
Altitude 27000
Route NUGBO M183 SILVA Q41 COWLY DCT GWC UN859 SOPIL DCT BALAN DCT LMG DCT PIMQO DCT AGN DCT ANETO DCT POSSY DCT ROCME DCT SEROX N860 RIMES
Aircraft B738/M-SDE2E3FGHIRWXY/LB1

Departure

Time 2026-05-07 14:01
Airport London Stansted Airport (EGSS)

Arrival

Time 2026-05-07 16:15
Airport Castellón-Costa Azahar Airport (LECH)
Time Latitude Longitude Altitude Speed Heading
2026-05-07 13:35 51.89213 0.26002 357 ft 0 kts 43°
2026-05-07 13:51 51.89205 0.25991 348 ft 4 kts 47°
2026-05-07 13:51 51.89190 0.25958 355 ft 4 kts 44°
2026-05-07 13:52 51.89175 0.25951 358 ft 4 kts 320°
2026-05-07 13:52 51.89161 0.25975 348 ft 4 kts 313°
2026-05-07 13:52 51.89156 0.25982 348 ft 0 kts 313°
2026-05-07 13:55 51.89166 0.25965 350 ft 7 kts 313°
2026-05-07 13:55 51.89229 0.25856 351 ft 19 kts 313°
2026-05-07 13:56 51.89338 0.25665 351 ft 25 kts 311°
2026-05-07 13:56 51.89296 0.25457 348 ft 22 kts 221°
2026-05-07 13:56 51.89168 0.25266 350 ft 28 kts 223°
2026-05-07 13:56 51.89018 0.25040 354 ft 30 kts 223°
2026-05-07 13:57 51.88869 0.24818 352 ft 28 kts 223°
2026-05-07 13:57 51.88729 0.24606 353 ft 27 kts 223°
2026-05-07 13:57 51.88597 0.24410 348 ft 25 kts 223°
2026-05-07 13:57 51.88475 0.24224 352 ft 24 kts 221°
2026-05-07 13:58 51.88339 0.24020 355 ft 30 kts 223°
2026-05-07 13:58 51.88184 0.23789 348 ft 31 kts 223°
2026-05-07 13:58 51.88026 0.23552 350 ft 31 kts 223°
2026-05-07 13:58 51.87869 0.23317 352 ft 31 kts 223°
2026-05-07 13:59 51.87734 0.23098 351 ft 22 kts 249°
2026-05-07 13:59 51.87774 0.22879 348 ft 22 kts 239°
2026-05-07 13:59 51.87663 0.22711 350 ft 21 kts 223°
2026-05-07 13:59 51.87555 0.22547 350 ft 24 kts 223°
2026-05-07 14:00 51.87418 0.22337 339 ft 26 kts 234°
2026-05-07 14:00 51.87431 0.22150 336 ft 16 kts 308°
2026-05-07 14:00 51.87510 0.22031 335 ft 15 kts 344°
2026-05-07 14:00 51.87598 0.22128 334 ft 18 kts 43°
2026-05-07 14:01 51.87872 0.22538 339 ft 96 kts 43°
2026-05-07 14:01 51.88546 0.23566 377 ft 165 kts 47°
2026-05-07 14:01 51.89418 0.24890 1246 ft 172 kts 46°
2026-05-07 14:01 51.90327 0.26262 2223 ft 189 kts 46°
2026-05-07 14:02 51.91342 0.27795 2932 ft 207 kts 44°
2026-05-07 14:02 51.92485 0.29357 3421 ft 226 kts 35°
2026-05-07 14:02 51.94038 0.30272 3700 ft 253 kts
2026-05-07 14:02 51.95838 0.29692 4025 ft 276 kts 330°
2026-05-07 14:03 51.97139 0.27518 5094 ft 266 kts 294°
2026-05-07 14:03 51.97567 0.24618 6018 ft 266 kts 273°
2026-05-07 14:03 51.97681 0.21600 6885 ft 271 kts 272°
2026-05-07 14:03 51.97861 0.18529 7664 ft 277 kts 274°
2026-05-07 14:04 51.98071 0.15392 8451 ft 283 kts 275°
2026-05-07 14:04 51.98348 0.12227 9398 ft 283 kts 277°
2026-05-07 14:04 51.98670 0.09055 9903 ft 286 kts 278°
2026-05-07 14:04 51.98928 0.05847 10047 ft 289 kts 266°
2026-05-07 14:05 51.98591 0.02658 10109 ft 287 kts 256°
2026-05-07 14:05 51.98142 -0.00591 10241 ft 307 kts 256°
2026-05-07 14:05 51.97674 -0.04107 10488 ft 329 kts 257°
2026-05-07 14:05 51.97146 -0.07788 11019 ft 339 kts 249°
2026-05-07 14:06 51.95866 -0.10956 11797 ft 338 kts 221°
2026-05-07 14:06 51.93880 -0.12988 12572 ft 341 kts 201°
2026-05-07 14:06 51.91648 -0.14352 13314 ft 346 kts 199°
2026-05-07 14:06 51.89370 -0.15671 14050 ft 350 kts 199°
2026-05-07 14:07 51.87066 -0.16989 14735 ft 353 kts 199°
2026-05-07 14:07 51.84768 -0.18311 15434 ft 356 kts 200°
2026-05-07 14:07 51.82453 -0.19652 16130 ft 359 kts 200°
2026-05-07 14:07 51.80088 -0.21031 16846 ft 363 kts 200°
2026-05-07 14:08 51.77704 -0.22428 17522 ft 366 kts 200°
2026-05-07 14:08 51.75298 -0.23841 18201 ft 370 kts 200°
2026-05-07 14:08 51.72877 -0.25265 18811 ft 373 kts 200°
2026-05-07 14:08 51.70425 -0.26707 19406 ft 376 kts 201°
2026-05-07 14:09 51.67960 -0.28156 19973 ft 379 kts 201°
2026-05-07 14:09 51.65471 -0.29618 20547 ft 382 kts 201°
2026-05-07 14:09 51.62965 -0.31088 21122 ft 385 kts 201°
2026-05-07 14:09 51.60443 -0.32566 21693 ft 387 kts 201°
2026-05-07 14:10 51.57918 -0.34042 22457 ft 384 kts 201°
2026-05-07 14:10 51.55416 -0.35505 23253 ft 381 kts 201°
2026-05-07 14:10 51.52926 -0.36958 23917 ft 380 kts 201°
2026-05-07 14:10 51.50446 -0.38404 24499 ft 379 kts 201°
2026-05-07 14:11 51.47970 -0.39846 25103 ft 378 kts 201°
2026-05-07 14:11 51.45503 -0.41282 25698 ft 376 kts 201°
2026-05-07 14:11 51.43047 -0.42709 26277 ft 375 kts 201°
2026-05-07 14:11 51.40601 -0.44129 26869 ft 373 kts 201°
2026-05-07 14:12 51.38144 -0.45555 27019 ft 377 kts 201°
2026-05-07 14:12 51.35691 -0.46975 27044 ft 373 kts 201°
2026-05-07 14:12 51.33255 -0.48384 27047 ft 373 kts 201°
2026-05-07 14:12 51.30817 -0.49794 27058 ft 373 kts 201°
2026-05-07 14:13 51.28376 -0.51203 27059 ft 374 kts 201°
2026-05-07 14:13 51.25929 -0.52614 27051 ft 374 kts 201°
2026-05-07 14:13 51.23485 -0.54022 27052 ft 374 kts 201°
2026-05-07 14:13 51.21024 -0.55437 27055 ft 375 kts 201°
2026-05-07 14:14 51.19399 -0.56371 27052 ft 375 kts 201°
2026-05-07 14:14 51.16947 -0.57779 27033 ft 375 kts 201°
2026-05-07 14:14 51.14496 -0.59185 27056 ft 374 kts 201°
2026-05-07 14:14 51.12043 -0.60590 27053 ft 374 kts 201°
2026-05-07 14:15 51.09590 -0.61994 27046 ft 374 kts 201°
2026-05-07 14:15 51.07144 -0.63392 27049 ft 374 kts 201°
2026-05-07 14:15 51.04695 -0.64791 27050 ft 373 kts 201°
2026-05-07 14:15 51.02255 -0.66183 27054 ft 373 kts 202°
2026-05-07 14:16 50.99812 -0.67574 27047 ft 373 kts 202°
2026-05-07 14:16 50.97369 -0.68965 27059 ft 372 kts 202°
2026-05-07 14:16 50.94933 -0.70350 27063 ft 372 kts 202°
2026-05-07 14:16 50.92492 -0.71737 27059 ft 372 kts 201°
2026-05-07 14:17 50.90056 -0.73118 27059 ft 372 kts 201°
2026-05-07 14:17 50.87573 -0.74283 27045 ft 375 kts 189°
2026-05-07 14:17 50.84963 -0.74156 27080 ft 379 kts 171°
2026-05-07 14:17 50.82476 -0.72747 27062 ft 385 kts 153°
2026-05-07 14:18 50.80183 -0.70537 27073 ft 386 kts 150°
2026-05-07 14:18 50.77931 -0.68217 27074 ft 388 kts 149°
2026-05-07 14:18 50.75679 -0.65858 27069 ft 388 kts 149°
2026-05-07 14:18 50.73422 -0.63500 27064 ft 389 kts 149°
2026-05-07 14:19 50.71160 -0.61158 27068 ft 389 kts 149°
2026-05-07 14:19 50.68887 -0.58825 27068 ft 390 kts 149°
2026-05-07 14:19 50.66609 -0.56502 27066 ft 390 kts 150°
2026-05-07 14:19 50.64329 -0.54189 27068 ft 390 kts 150°
2026-05-07 14:20 50.62079 -0.51912 27068 ft 390 kts 150°
2026-05-07 14:20 50.59797 -0.49608 27067 ft 389 kts 150°
2026-05-07 14:20 50.57515 -0.47308 27068 ft 389 kts 150°
2026-05-07 14:20 50.55240 -0.45017 27069 ft 389 kts 150°
2026-05-07 14:21 50.52961 -0.42725 27068 ft 389 kts 150°
2026-05-07 14:21 50.50683 -0.40437 27066 ft 388 kts 150°
2026-05-07 14:21 50.48407 -0.38153 27068 ft 388 kts 150°
2026-05-07 14:21 50.46135 -0.35876 27066 ft 388 kts 150°
2026-05-07 14:22 50.43862 -0.33600 27067 ft 388 kts 150°
2026-05-07 14:22 50.41587 -0.31325 27068 ft 387 kts 150°
2026-05-07 14:22 50.39318 -0.29059 27067 ft 387 kts 150°
2026-05-07 14:22 50.37043 -0.26789 27068 ft 387 kts 150°
2026-05-07 14:23 50.34773 -0.24527 27067 ft 387 kts 150°
2026-05-07 14:23 50.32504 -0.22268 27069 ft 387 kts 150°
2026-05-07 14:23 50.30229 -0.20006 27069 ft 387 kts 150°
2026-05-07 14:23 50.27956 -0.17748 27068 ft 387 kts 150°
2026-05-07 14:24 50.25681 -0.15492 27069 ft 387 kts 150°
2026-05-07 14:24 50.23410 -0.13241 27068 ft 387 kts 150°
2026-05-07 14:24 50.21132 -0.10986 27066 ft 387 kts 150°
2026-05-07 14:24 50.18857 -0.08736 27066 ft 387 kts 150°
2026-05-07 14:25 50.16584 -0.06489 27068 ft 387 kts 150°
2026-05-07 14:25 50.14310 -0.04247 27068 ft 387 kts 150°
2026-05-07 14:25 50.12034 -0.02005 27068 ft 387 kts 150°
2026-05-07 14:25 50.09673 -0.00029 27055 ft 384 kts 159°
2026-05-07 14:26 50.07151 0.01269 27074 ft 381 kts 168°
2026-05-07 14:26 50.04585 0.02274 27062 ft 381 kts 168°
2026-05-07 14:26 50.02010 0.03242 27061 ft 381 kts 169°
2026-05-07 14:26 49.99432 0.04211 27064 ft 381 kts 168°
2026-05-07 14:27 49.96861 0.05190 27065 ft 381 kts 168°
2026-05-07 14:27 49.94293 0.06179 27072 ft 381 kts 168°
2026-05-07 14:27 49.91722 0.07178 27065 ft 381 kts 168°
2026-05-07 14:27 49.89155 0.08179 27064 ft 381 kts 168°
2026-05-07 14:28 49.86588 0.09182 27063 ft 381 kts 168°
2026-05-07 14:28 49.84024 0.10183 27059 ft 381 kts 168°
2026-05-07 14:28 49.81452 0.11186 27060 ft 381 kts 168°
2026-05-07 14:28 49.78886 0.12186 27057 ft 380 kts 168°
2026-05-07 14:29 49.76316 0.13186 27053 ft 380 kts 168°
2026-05-07 14:29 49.73784 0.14171 27052 ft 380 kts 168°
2026-05-07 14:29 49.71217 0.15168 27053 ft 380 kts 168°
2026-05-07 14:29 49.68652 0.16162 27049 ft 380 kts 168°
2026-05-07 14:30 49.66088 0.17175 27056 ft 380 kts 167°
2026-05-07 14:30 49.63531 0.18210 27047 ft 381 kts 167°
2026-05-07 14:30 49.60967 0.19256 27052 ft 381 kts 167°
2026-05-07 14:30 49.58409 0.20298 27047 ft 381 kts 167°
2026-05-07 14:31 49.55853 0.21337 27046 ft 380 kts 167°
2026-05-07 14:31 49.53287 0.22376 27047 ft 380 kts 167°
2026-05-07 14:31 49.50732 0.23409 27044 ft 380 kts 167°
2026-05-07 14:31 49.48175 0.24441 27048 ft 380 kts 167°
2026-05-07 14:32 49.45618 0.25471 27048 ft 380 kts 167°
2026-05-07 14:32 49.43065 0.26498 27046 ft 379 kts 167°
2026-05-07 14:32 49.40510 0.27525 27050 ft 379 kts 167°
2026-05-07 14:32 49.37956 0.28551 27047 ft 379 kts 167°
2026-05-07 14:33 49.35407 0.29574 27044 ft 379 kts 167°
2026-05-07 14:33 49.32858 0.30595 27048 ft 379 kts 167°
2026-05-07 14:33 49.30310 0.31618 27045 ft 378 kts 167°
2026-05-07 14:33 49.27768 0.32673 27045 ft 379 kts 167°
2026-05-07 14:34 49.25230 0.33744 27042 ft 379 kts 167°
2026-05-07 14:34 49.22692 0.34820 27042 ft 378 kts 167°
2026-05-07 14:34 49.20154 0.35893 27042 ft 379 kts 167°
2026-05-07 14:34 49.17613 0.36964 27037 ft 379 kts 167°
2026-05-07 14:35 49.15076 0.38031 27037 ft 378 kts 167°
2026-05-07 14:35 49.12540 0.39094 27035 ft 378 kts 167°
2026-05-07 14:35 49.09996 0.40159 27033 ft 379 kts 167°
2026-05-07 14:35 49.07458 0.41220 27029 ft 379 kts 167°
2026-05-07 14:36 49.04917 0.42281 27026 ft 379 kts 167°
2026-05-07 14:36 49.02374 0.43342 27026 ft 379 kts 167°
2026-05-07 14:36 48.99830 0.44402 27029 ft 379 kts 167°
2026-05-07 14:36 48.97290 0.45459 27026 ft 379 kts 167°
2026-05-07 14:37 48.94748 0.46516 27026 ft 379 kts 167°
2026-05-07 14:37 48.89664 0.48627 27025 ft 379 kts 167°
2026-05-07 14:37 48.87123 0.49680 27026 ft 379 kts 167°
2026-05-07 14:38 48.84583 0.50732 27024 ft 378 kts 167°
2026-05-07 14:38 48.82043 0.51783 27025 ft 378 kts 167°
2026-05-07 14:38 48.79504 0.52832 27027 ft 378 kts 167°
2026-05-07 14:38 48.76966 0.53858 27023 ft 378 kts 167°
2026-05-07 14:39 48.74418 0.54857 27021 ft 378 kts 168°
2026-05-07 14:39 48.71871 0.55846 27026 ft 378 kts 168°
2026-05-07 14:39 48.69327 0.56833 27025 ft 378 kts 168°
2026-05-07 14:39 48.66781 0.57823 27027 ft 378 kts 168°
2026-05-07 14:40 48.64232 0.58816 27022 ft 378 kts 168°
2026-05-07 14:40 48.61687 0.59807 27023 ft 378 kts 168°
2026-05-07 14:40 48.59139 0.60801 27022 ft 378 kts 168°
2026-05-07 14:40 48.56626 0.61779 27025 ft 378 kts 168°
2026-05-07 14:41 48.54047 0.62781 27026 ft 378 kts 168°
2026-05-07 14:41 48.51536 0.63759 27027 ft 378 kts 167°
2026-05-07 14:41 48.48993 0.64780 27024 ft 378 kts 167°
2026-05-07 14:41 48.46454 0.65816 27021 ft 378 kts 167°
2026-05-07 14:42 48.43911 0.66857 27025 ft 378 kts 167°
2026-05-07 14:42 48.41370 0.67894 27020 ft 378 kts 167°
2026-05-07 14:42 48.38833 0.68927 27027 ft 378 kts 167°
2026-05-07 14:42 48.36294 0.69957 27025 ft 378 kts 167°
2026-05-07 14:43 48.33756 0.70984 27016 ft 378 kts 167°
2026-05-07 14:43 48.31212 0.72014 27022 ft 378 kts 167°
2026-05-07 14:43 48.28676 0.73038 27014 ft 378 kts 167°
2026-05-07 14:43 48.26138 0.74061 27015 ft 377 kts 167°
2026-05-07 14:44 48.23604 0.75076 27021 ft 377 kts 167°
2026-05-07 14:44 48.21071 0.76077 27023 ft 377 kts 168°
2026-05-07 14:44 48.18532 0.77075 27023 ft 377 kts 168°
2026-05-07 14:44 48.15992 0.78072 27011 ft 377 kts 168°
2026-05-07 14:45 48.13450 0.79070 27015 ft 377 kts 168°
2026-05-07 14:45 48.10915 0.80065 27021 ft 377 kts 168°
2026-05-07 14:45 48.08378 0.81060 27023 ft 377 kts 168°
2026-05-07 14:45 48.05836 0.82057 27016 ft 377 kts 168°
2026-05-07 14:46 48.03296 0.83052 27013 ft 377 kts 168°
2026-05-07 14:46 48.00756 0.84047 27016 ft 377 kts 168°
2026-05-07 14:46 47.98215 0.85040 27013 ft 377 kts 168°
2026-05-07 14:46 47.95679 0.86031 27022 ft 377 kts 168°
2026-05-07 14:47 47.93134 0.87025 27013 ft 377 kts 168°
2026-05-07 14:47 47.90628 0.88002 27015 ft 377 kts 168°
2026-05-07 14:47 47.88089 0.88992 27015 ft 377 kts 168°
2026-05-07 14:47 47.85517 0.89992 27016 ft 377 kts 168°
2026-05-07 14:48 47.83007 0.90968 27008 ft 377 kts 168°
2026-05-07 14:48 47.80466 0.91952 27015 ft 377 kts 168°
2026-05-07 14:48 47.77894 0.92948 27008 ft 378 kts 168°
2026-05-07 14:48 47.75385 0.93917 27006 ft 378 kts 168°
2026-05-07 14:49 47.72841 0.94900 27010 ft 377 kts 168°
2026-05-07 14:49 47.70300 0.95881 27012 ft 377 kts 168°
2026-05-07 14:49 47.67762 0.96860 27015 ft 377 kts 168°
2026-05-07 14:49 47.65221 0.97839 27010 ft 377 kts 168°
2026-05-07 14:50 47.62682 0.98816 27013 ft 377 kts 168°
2026-05-07 14:50 47.60145 0.99792 27007 ft 377 kts 168°
2026-05-07 14:50 47.57610 1.00766 27016 ft 376 kts 168°
2026-05-07 14:50 47.55076 1.01738 27017 ft 376 kts 168°
2026-05-07 14:51 47.52540 1.02711 27017 ft 376 kts 168°
2026-05-07 14:51 47.50007 1.03682 27014 ft 376 kts 168°
2026-05-07 14:51 47.47476 1.04650 27017 ft 376 kts 168°
2026-05-07 14:51 47.44943 1.05618 27020 ft 376 kts 168°
2026-05-07 14:52 47.42385 1.06354 27015 ft 373 kts 177°
2026-05-07 14:52 47.39802 1.06456 27018 ft 371 kts 183°
2026-05-07 14:52 47.37222 1.06383 27013 ft 371 kts 184°
2026-05-07 14:52 47.34643 1.06287 27011 ft 371 kts 184°
2026-05-07 14:53 47.32063 1.06197 27016 ft 371 kts 184°
2026-05-07 14:53 47.29482 1.06117 27014 ft 371 kts 184°
2026-05-07 14:53 47.26896 1.06048 27011 ft 371 kts 183°
2026-05-07 14:53 47.24317 1.05985 27013 ft 371 kts 183°
2026-05-07 14:54 47.21728 1.05925 27009 ft 371 kts 183°
2026-05-07 14:54 47.19143 1.05867 27007 ft 371 kts 183°
2026-05-07 14:54 47.16562 1.05810 27000 ft 371 kts 183°
2026-05-07 14:54 47.13981 1.05752 26999 ft 371 kts 183°
2026-05-07 14:55 47.11400 1.05695 27006 ft 371 kts 183°
2026-05-07 14:55 47.08820 1.05638 27003 ft 371 kts 183°
2026-05-07 14:55 47.06241 1.05581 26998 ft 370 kts 183°
2026-05-07 14:55 47.03666 1.05523 27004 ft 370 kts 183°
2026-05-07 14:56 47.01093 1.05455 26994 ft 370 kts 184°
2026-05-07 14:56 46.98520 1.05351 26996 ft 369 kts 184°
2026-05-07 14:56 46.95985 1.05235 26998 ft 369 kts 184°
2026-05-07 14:56 46.93420 1.05116 26989 ft 369 kts 184°
2026-05-07 14:57 46.90853 1.04998 26996 ft 369 kts 184°
2026-05-07 14:57 46.88286 1.04883 26992 ft 369 kts 184°
2026-05-07 14:57 46.85726 1.04770 26992 ft 369 kts 184°
2026-05-07 14:57 46.83158 1.04657 26997 ft 369 kts 184°
2026-05-07 14:58 46.80597 1.04546 26997 ft 368 kts 184°
2026-05-07 14:58 46.78036 1.04435 26998 ft 368 kts 184°
2026-05-07 14:58 46.75472 1.04325 26993 ft 368 kts 184°
2026-05-07 14:58 46.72913 1.04215 26992 ft 368 kts 184°
2026-05-07 14:59 46.70349 1.04104 26989 ft 369 kts 184°
2026-05-07 14:59 46.67780 1.03994 26988 ft 369 kts 184°
2026-05-07 14:59 46.65218 1.03883 26990 ft 369 kts 184°
2026-05-07 14:59 46.62655 1.03773 26993 ft 368 kts 184°
2026-05-07 15:00 46.60091 1.03663 26989 ft 368 kts 184°
2026-05-07 15:00 46.57534 1.03554 26989 ft 368 kts 184°
2026-05-07 15:00 46.54973 1.03444 26986 ft 368 kts 184°
2026-05-07 15:00 46.52411 1.03335 26983 ft 368 kts 184°
2026-05-07 15:01 46.49852 1.03248 26980 ft 368 kts 182°
2026-05-07 15:01 46.47294 1.03213 26984 ft 368 kts 182°
2026-05-07 15:01 46.44739 1.03196 26984 ft 367 kts 182°
2026-05-07 15:01 46.42184 1.03182 26988 ft 367 kts 182°
2026-05-07 15:02 46.40493 1.03172 26984 ft 367 kts 182°
2026-05-07 15:02 46.37942 1.03153 26991 ft 367 kts 182°
2026-05-07 15:02 46.35390 1.03132 26985 ft 367 kts 182°
2026-05-07 15:02 46.32836 1.03109 26991 ft 367 kts 182°
2026-05-07 15:03 46.30282 1.03084 26977 ft 367 kts 182°
2026-05-07 15:03 46.27728 1.03059 26977 ft 367 kts 182°
2026-05-07 15:03 46.25176 1.03034 26981 ft 367 kts 182°
2026-05-07 15:03 46.22623 1.03008 26984 ft 367 kts 182°
2026-05-07 15:04 46.20075 1.02983 26974 ft 367 kts 182°
2026-05-07 15:04 46.17526 1.02957 26980 ft 366 kts 182°
2026-05-07 15:04 46.14976 1.02931 26983 ft 366 kts 182°
2026-05-07 15:04 46.12430 1.02906 26987 ft 366 kts 182°
2026-05-07 15:05 46.09881 1.02881 26988 ft 366 kts 182°
2026-05-07 15:05 46.07333 1.02855 26978 ft 366 kts 182°
2026-05-07 15:05 46.04792 1.02830 26986 ft 366 kts 182°
2026-05-07 15:05 46.02250 1.02805 26974 ft 365 kts 182°
2026-05-07 15:06 45.99706 1.02779 26972 ft 365 kts 182°
2026-05-07 15:06 45.97163 1.02754 26968 ft 365 kts 182°
2026-05-07 15:06 45.94622 1.02729 26969 ft 365 kts 182°
2026-05-07 15:06 45.92084 1.02704 26970 ft 365 kts 182°
2026-05-07 15:07 45.89541 1.02679 26968 ft 365 kts 182°
2026-05-07 15:07 45.87004 1.02653 26967 ft 365 kts 182°
2026-05-07 15:07 45.84499 1.02629 26966 ft 365 kts 182°
2026-05-07 15:07 45.81965 1.02630 26965 ft 365 kts 180°
2026-05-07 15:08 45.79438 1.03058 26976 ft 366 kts 173°
2026-05-07 15:08 45.76931 1.03702 26966 ft 367 kts 172°
2026-05-07 15:08 45.74421 1.04371 26971 ft 367 kts 172°
2026-05-07 15:08 45.71911 1.05041 26975 ft 367 kts 172°
2026-05-07 15:09 45.69405 1.05702 26969 ft 367 kts 172°
2026-05-07 15:09 45.66894 1.06357 26976 ft 367 kts 172°
2026-05-07 15:09 45.64382 1.07006 26978 ft 367 kts 172°
2026-05-07 15:09 45.61866 1.07653 26983 ft 367 kts 172°
2026-05-07 15:10 45.59348 1.08297 26972 ft 368 kts 172°
2026-05-07 15:10 45.56833 1.08939 26981 ft 367 kts 172°
2026-05-07 15:10 45.54316 1.09581 26975 ft 367 kts 173°
2026-05-07 15:10 45.51802 1.10221 26983 ft 367 kts 173°
2026-05-07 15:11 45.49286 1.10861 26978 ft 367 kts 173°
2026-05-07 15:11 45.46773 1.11499 26977 ft 367 kts 173°
2026-05-07 15:11 45.44260 1.12137 26976 ft 367 kts 173°
2026-05-07 15:11 45.41745 1.12775 26981 ft 367 kts 173°
2026-05-07 15:12 45.39236 1.13411 26978 ft 367 kts 173°
2026-05-07 15:12 45.36724 1.14047 26980 ft 367 kts 173°
2026-05-07 15:12 45.34208 1.14684 26974 ft 367 kts 173°
2026-05-07 15:12 45.31695 1.15319 26978 ft 367 kts 173°
2026-05-07 15:13 45.29182 1.15954 26970 ft 367 kts 173°
2026-05-07 15:13 45.26668 1.16588 26973 ft 367 kts 173°
2026-05-07 15:13 45.24154 1.17222 26976 ft 367 kts 173°
2026-05-07 15:13 45.21641 1.17855 26974 ft 367 kts 173°
2026-05-07 15:14 45.19133 1.18486 26970 ft 367 kts 173°
2026-05-07 15:14 45.16608 1.18973 26967 ft 365 kts 180°
2026-05-07 15:14 45.14081 1.18892 26973 ft 362 kts 190°
2026-05-07 15:14 45.11603 1.18316 26983 ft 360 kts 192°
2026-05-07 15:15 45.09136 1.17668 26972 ft 361 kts 193°
2026-05-07 15:15 45.06671 1.17006 26967 ft 361 kts 193°
2026-05-07 15:15 45.04234 1.16354 26971 ft 361 kts 193°
2026-05-07 15:15 45.01768 1.15703 26966 ft 361 kts 193°
2026-05-07 15:16 44.99294 1.15056 26971 ft 361 kts 193°
2026-05-07 15:16 44.96825 1.14417 26974 ft 361 kts 192°
2026-05-07 15:16 44.94353 1.13781 26967 ft 361 kts 192°
2026-05-07 15:16 44.91883 1.13148 26969 ft 361 kts 192°
2026-05-07 15:17 44.89412 1.12516 26971 ft 361 kts 192°
2026-05-07 15:17 44.86941 1.11886 26971 ft 361 kts 192°
2026-05-07 15:17 44.84476 1.11258 26971 ft 360 kts 192°
2026-05-07 15:17 44.82008 1.10630 26972 ft 360 kts 192°
2026-05-07 15:18 44.79540 1.10002 26972 ft 361 kts 192°
2026-05-07 15:18 44.77069 1.09375 26972 ft 361 kts 192°
2026-05-07 15:18 44.74623 1.08754 26968 ft 361 kts 192°
2026-05-07 15:18 44.72129 1.08122 26971 ft 361 kts 192°
2026-05-07 15:19 44.69662 1.07497 26974 ft 361 kts 192°
2026-05-07 15:19 44.67192 1.06871 26971 ft 361 kts 192°
2026-05-07 15:19 44.64723 1.06247 26964 ft 361 kts 192°
2026-05-07 15:19 44.62254 1.05623 26968 ft 360 kts 192°
2026-05-07 15:20 44.59787 1.05000 26968 ft 360 kts 192°
2026-05-07 15:20 44.57322 1.04378 26970 ft 360 kts 192°
2026-05-07 15:20 44.54857 1.03757 26977 ft 360 kts 192°
2026-05-07 15:20 44.52395 1.03137 26973 ft 360 kts 192°
2026-05-07 15:21 44.49929 1.02517 26973 ft 360 kts 192°
2026-05-07 15:21 44.47463 1.01896 26983 ft 360 kts 192°
2026-05-07 15:21 44.44995 1.01276 26980 ft 360 kts 192°
2026-05-07 15:21 44.42529 1.00658 26966 ft 360 kts 192°
2026-05-07 15:22 44.40062 1.00038 26972 ft 360 kts 192°
2026-05-07 15:22 44.37595 0.99420 26972 ft 360 kts 192°
2026-05-07 15:22 44.35132 0.98804 26969 ft 360 kts 192°
2026-05-07 15:22 44.32699 0.98196 26965 ft 359 kts 192°
2026-05-07 15:23 44.30238 0.97581 26972 ft 359 kts 192°
2026-05-07 15:23 44.27779 0.96966 26962 ft 359 kts 192°
2026-05-07 15:23 44.25321 0.96352 26967 ft 359 kts 192°
2026-05-07 15:23 44.22866 0.95741 26969 ft 358 kts 192°
2026-05-07 15:24 44.20408 0.95129 26961 ft 358 kts 192°
2026-05-07 15:24 44.17956 0.94518 26969 ft 358 kts 192°
2026-05-07 15:24 44.15501 0.93908 26971 ft 358 kts 192°
2026-05-07 15:24 44.13051 0.93300 26970 ft 358 kts 192°
2026-05-07 15:25 44.10602 0.92692 26971 ft 358 kts 192°
2026-05-07 15:25 44.08150 0.92083 26966 ft 358 kts 192°
2026-05-07 15:25 44.05699 0.91476 26967 ft 358 kts 192°
2026-05-07 15:25 44.03248 0.90869 26962 ft 358 kts 192°
2026-05-07 15:26 44.00794 0.90261 26968 ft 358 kts 192°
2026-05-07 15:26 43.98344 0.89656 26961 ft 358 kts 192°
2026-05-07 15:26 43.95894 0.89050 26966 ft 358 kts 192°
2026-05-07 15:26 43.93446 0.88446 26956 ft 358 kts 192°
2026-05-07 15:27 43.90992 0.87841 26972 ft 358 kts 192°
2026-05-07 15:27 43.88543 0.87237 26961 ft 358 kts 192°
2026-05-07 15:27 43.86094 0.86602 26958 ft 358 kts 193°
2026-05-07 15:27 43.83649 0.85946 26961 ft 358 kts 193°
2026-05-07 15:28 43.81207 0.85284 26968 ft 358 kts 193°
2026-05-07 15:28 43.78763 0.84622 26958 ft 358 kts 193°
2026-05-07 15:28 43.76322 0.83963 26963 ft 358 kts 193°
2026-05-07 15:28 43.73879 0.83305 26960 ft 357 kts 193°
2026-05-07 15:29 43.71471 0.82659 26966 ft 357 kts 193°
2026-05-07 15:29 43.69033 0.82006 26961 ft 357 kts 193°
2026-05-07 15:29 43.66595 0.81355 26950 ft 357 kts 193°
2026-05-07 15:29 43.64124 0.80695 26964 ft 357 kts 193°
2026-05-07 15:30 43.61722 0.80055 26953 ft 357 kts 193°
2026-05-07 15:30 43.59286 0.79406 26955 ft 357 kts 193°
2026-05-07 15:30 43.56852 0.78758 26960 ft 357 kts 193°
2026-05-07 15:30 43.54413 0.78109 26960 ft 357 kts 193°
2026-05-07 15:31 43.51978 0.77462 26962 ft 357 kts 193°
2026-05-07 15:31 43.49544 0.76816 26959 ft 356 kts 193°
2026-05-07 15:31 43.47108 0.76170 26957 ft 356 kts 193°
2026-05-07 15:31 43.44674 0.75524 26962 ft 356 kts 193°
2026-05-07 15:32 43.42239 0.74880 26953 ft 356 kts 193°
2026-05-07 15:32 43.39811 0.74237 26954 ft 356 kts 193°
2026-05-07 15:32 43.37381 0.73594 26958 ft 356 kts 193°
2026-05-07 15:32 43.34946 0.72951 26957 ft 356 kts 193°
2026-05-07 15:33 43.32517 0.72310 26954 ft 355 kts 193°
2026-05-07 15:33 43.30093 0.71671 26959 ft 355 kts 193°
2026-05-07 15:33 43.27662 0.71030 26958 ft 355 kts 193°
2026-05-07 15:33 43.25231 0.70390 26959 ft 356 kts 193°
2026-05-07 15:34 43.22803 0.69750 26950 ft 356 kts 193°
2026-05-07 15:34 43.20371 0.69111 26958 ft 356 kts 193°
2026-05-07 15:34 43.17944 0.68474 26961 ft 356 kts 193°
2026-05-07 15:34 43.15514 0.67836 26955 ft 356 kts 193°
2026-05-07 15:35 43.13082 0.67198 26949 ft 356 kts 193°
2026-05-07 15:35 43.10653 0.66562 26955 ft 355 kts 193°
2026-05-07 15:35 43.08223 0.65925 26954 ft 355 kts 193°
2026-05-07 15:35 43.05798 0.65291 26953 ft 355 kts 193°
2026-05-07 15:36 43.03372 0.64656 26960 ft 355 kts 193°
2026-05-07 15:36 43.00946 0.64023 26933 ft 355 kts 193°
2026-05-07 15:36 42.98525 0.63391 26961 ft 355 kts 193°
2026-05-07 15:36 42.96098 0.62757 26948 ft 355 kts 193°
2026-05-07 15:37 42.93672 0.62122 26951 ft 356 kts 193°
2026-05-07 15:37 42.91240 0.61489 26965 ft 355 kts 193°
2026-05-07 15:37 42.88816 0.60859 26937 ft 355 kts 193°
2026-05-07 15:37 42.86392 0.60230 26957 ft 354 kts 193°
2026-05-07 15:38 42.83974 0.59603 26959 ft 353 kts 193°
2026-05-07 15:38 42.81558 0.58976 26952 ft 353 kts 193°
2026-05-07 15:38 42.79146 0.58350 26964 ft 353 kts 193°
2026-05-07 15:38 42.76734 0.57724 26959 ft 353 kts 193°
2026-05-07 15:39 42.74314 0.57097 26958 ft 354 kts 193°
2026-05-07 15:39 42.71896 0.56472 26957 ft 354 kts 193°
2026-05-07 15:39 42.69493 0.55745 26953 ft 352 kts 198°
2026-05-07 15:39 42.67214 0.54553 26961 ft 351 kts 206°
2026-05-07 15:40 42.65008 0.53137 26967 ft 351 kts 207°
2026-05-07 15:40 42.62804 0.51704 26955 ft 351 kts 207°
2026-05-07 15:40 42.60601 0.50274 26954 ft 351 kts 207°
2026-05-07 15:40 42.58402 0.48851 26957 ft 351 kts 206°
2026-05-07 15:41 42.56199 0.47433 26958 ft 350 kts 206°
2026-05-07 15:41 42.53995 0.46020 26931 ft 350 kts 206°
2026-05-07 15:41 42.51792 0.44611 26947 ft 349 kts 206°
2026-05-07 15:41 42.49596 0.43210 26956 ft 349 kts 206°
2026-05-07 15:42 42.47393 0.41806 26940 ft 350 kts 206°
2026-05-07 15:42 42.45225 0.40425 26944 ft 349 kts 206°
2026-05-07 15:42 42.43025 0.39026 26948 ft 349 kts 206°
2026-05-07 15:42 42.40832 0.37632 26929 ft 349 kts 206°
2026-05-07 15:43 42.38638 0.36239 26932 ft 348 kts 206°
2026-05-07 15:43 42.36449 0.34849 26944 ft 347 kts 206°
2026-05-07 15:43 42.34260 0.33462 26936 ft 348 kts 206°
2026-05-07 15:43 42.32068 0.32074 26941 ft 348 kts 206°
2026-05-07 15:44 42.29872 0.30684 26938 ft 348 kts 206°
2026-05-07 15:44 42.27680 0.29297 26935 ft 348 kts 206°
2026-05-07 15:44 42.25482 0.27908 26934 ft 349 kts 206°
2026-05-07 15:44 42.23285 0.26520 26934 ft 349 kts 206°
2026-05-07 15:45 42.21084 0.25130 26930 ft 349 kts 206°
2026-05-07 15:45 42.18880 0.23741 26924 ft 350 kts 206°
2026-05-07 15:45 42.16677 0.22352 26923 ft 349 kts 206°
2026-05-07 15:45 42.14475 0.20965 26923 ft 349 kts 206°
2026-05-07 15:46 42.10080 0.18201 26921 ft 349 kts 206°
2026-05-07 15:46 42.07844 0.16940 26914 ft 349 kts 198°
2026-05-07 15:46 42.05474 0.16203 26922 ft 351 kts 191°
2026-05-07 15:47 42.03039 0.15928 26922 ft 353 kts 181°
2026-05-07 15:47 42.00582 0.16094 26932 ft 354 kts 179°
2026-05-07 15:47 41.98124 0.16331 26922 ft 354 kts 179°
2026-05-07 15:47 41.95671 0.16577 26930 ft 353 kts 179°
2026-05-07 15:48 41.93224 0.16815 26928 ft 353 kts 179°
2026-05-07 15:48 41.90776 0.17042 26921 ft 353 kts 179°
2026-05-07 15:48 41.88326 0.17264 26929 ft 353 kts 179°
2026-05-07 15:48 41.85879 0.17481 26925 ft 353 kts 179°
2026-05-07 15:49 41.83428 0.17697 26919 ft 353 kts 179°
2026-05-07 15:49 41.80983 0.17911 26919 ft 353 kts 179°
2026-05-07 15:49 41.78530 0.18126 26921 ft 353 kts 179°
2026-05-07 15:49 41.76084 0.18340 26919 ft 352 kts 179°
2026-05-07 15:50 41.74463 0.18481 26924 ft 352 kts 179°
2026-05-07 15:50 41.72020 0.18693 26923 ft 352 kts 179°
2026-05-07 15:50 41.68779 0.18972 26921 ft 352 kts 179°
2026-05-07 15:50 41.66364 0.19182 26909 ft 343 kts 179°
2026-05-07 15:51 41.64004 0.19386 26909 ft 338 kts 179°
2026-05-07 15:51 41.61667 0.19588 26918 ft 335 kts 179°
2026-05-07 15:51 41.60094 0.19723 26930 ft 336 kts 179°
2026-05-07 15:51 41.57756 0.19923 26762 ft 338 kts 179°
2026-05-07 15:52 41.55451 0.20121 26545 ft 333 kts 179°
2026-05-07 15:52 41.53108 0.20323 26182 ft 332 kts 179°
2026-05-07 15:52 41.50846 0.20517 25858 ft 329 kts 179°
2026-05-07 15:52 41.48538 0.20715 25504 ft 327 kts 179°
2026-05-07 15:53 41.46272 0.20909 25153 ft 325 kts 178°
2026-05-07 15:53 41.44046 0.21100 24800 ft 324 kts 178°
2026-05-07 15:53 41.41802 0.21292 24470 ft 323 kts 178°
2026-05-07 15:53 41.39564 0.21484 24121 ft 322 kts 178°
2026-05-07 15:54 41.37331 0.21675 23762 ft 321 kts 178°
2026-05-07 15:54 41.35103 0.21816 23389 ft 320 kts 183°
2026-05-07 15:54 41.32872 0.21520 22688 ft 327 kts 192°
2026-05-07 15:54 41.30651 0.20921 22275 ft 326 kts 192°
2026-05-07 15:55 41.28433 0.20332 21903 ft 324 kts 192°
2026-05-07 15:55 41.26224 0.19761 21541 ft 322 kts 192°
2026-05-07 15:55 41.24030 0.19212 21184 ft 320 kts 191°
2026-05-07 15:55 41.21846 0.18675 20835 ft 318 kts 191°
2026-05-07 15:56 41.19671 0.18141 20503 ft 316 kts 191°
2026-05-07 15:56 41.17514 0.17611 20170 ft 314 kts 191°
2026-05-07 15:56 41.15368 0.17084 19846 ft 313 kts 192°
2026-05-07 15:56 41.13233 0.16556 19511 ft 311 kts 193°
2026-05-07 15:57 41.11133 0.15855 19141 ft 311 kts 197°
2026-05-07 15:57 41.09063 0.15025 18801 ft 311 kts 198°
2026-05-07 15:57 41.07000 0.14169 18461 ft 310 kts 198°
2026-05-07 15:57 41.04948 0.13319 18130 ft 309 kts 198°
2026-05-07 15:58 41.02895 0.12480 17763 ft 308 kts 198°
2026-05-07 15:58 41.00850 0.11652 17414 ft 306 kts 198°
2026-05-07 15:58 40.98822 0.10837 17076 ft 304 kts 198°
2026-05-07 15:58 40.96805 0.10029 16774 ft 301 kts 198°
2026-05-07 15:59 40.94802 0.09229 16449 ft 300 kts 197°
2026-05-07 15:59 40.92815 0.08436 16139 ft 298 kts 197°
2026-05-07 15:59 40.90838 0.07648 15820 ft 296 kts 197°
2026-05-07 15:59 40.88871 0.06866 15512 ft 294 kts 197°
2026-05-07 16:00 40.86943 0.06099 15208 ft 293 kts 197°
2026-05-07 16:00 40.84995 0.05317 14880 ft 292 kts 197°
2026-05-07 16:00 40.83052 0.04534 14562 ft 292 kts 197°
2026-05-07 16:00 40.81114 0.03753 14252 ft 291 kts 197°
2026-05-07 16:01 40.79177 0.02973 13935 ft 291 kts 197°
2026-05-07 16:01 40.77244 0.02195 13604 ft 290 kts 197°
2026-05-07 16:01 40.75317 0.01421 13260 ft 289 kts 197°
2026-05-07 16:01 40.73395 0.00648 12941 ft 288 kts 197°
2026-05-07 16:02 40.71485 -0.00119 12627 ft 287 kts 197°
2026-05-07 16:02 40.69581 -0.00882 12315 ft 285 kts 197°
2026-05-07 16:02 40.67684 -0.01643 12006 ft 284 kts 197°
2026-05-07 16:02 40.65797 -0.02400 11707 ft 283 kts 197°
2026-05-07 16:03 40.63913 -0.03155 11394 ft 282 kts 197°
2026-05-07 16:03 40.62039 -0.03905 11094 ft 281 kts 196°
2026-05-07 16:03 40.60165 -0.04655 10795 ft 281 kts 196°
2026-05-07 16:03 40.58300 -0.05400 10486 ft 280 kts 196°
2026-05-07 16:04 40.56439 -0.06143 10190 ft 279 kts 196°
2026-05-07 16:04 40.54588 -0.06881 9993 ft 274 kts 195°
2026-05-07 16:04 40.52772 -0.07601 9726 ft 273 kts 195°
2026-05-07 16:04 40.50960 -0.08319 9427 ft 271 kts 195°
2026-05-07 16:05 40.49165 -0.09036 9135 ft 269 kts 196°
2026-05-07 16:05 40.47381 -0.09765 8844 ft 267 kts 196°
2026-05-07 16:05 40.45606 -0.10496 8545 ft 267 kts 196°
2026-05-07 16:05 40.43835 -0.11227 8246 ft 267 kts 197°
2026-05-07 16:06 40.42060 -0.11958 7934 ft 267 kts 196°
2026-05-07 16:06 40.40291 -0.12687 7633 ft 266 kts 196°
2026-05-07 16:06 40.38528 -0.13416 7338 ft 266 kts 196°
2026-05-07 16:06 40.36757 -0.14095 7067 ft 264 kts 192°
2026-05-07 16:07 40.34975 -0.14608 6824 ft 261 kts 191°
2026-05-07 16:07 40.33184 -0.14908 6530 ft 259 kts 179°
2026-05-07 16:07 40.31408 -0.14847 6233 ft 252 kts 177°
2026-05-07 16:07 40.29674 -0.14740 5922 ft 247 kts 176°
2026-05-07 16:08 40.27996 -0.14633 5613 ft 243 kts 176°
2026-05-07 16:08 40.26322 -0.14525 5303 ft 238 kts 176°
2026-05-07 16:08 40.24678 -0.14421 4998 ft 235 kts 176°
2026-05-07 16:08 40.23059 -0.14322 4694 ft 231 kts 176°
2026-05-07 16:09 40.21491 -0.14194 4635 ft 219 kts 174°
2026-05-07 16:09 40.19994 -0.14037 4691 ft 212 kts 174°
2026-05-07 16:09 40.18559 -0.13888 4594 ft 201 kts 174°
2026-05-07 16:09 40.17194 -0.13749 4520 ft 194 kts 174°
2026-05-07 16:10 40.15859 -0.13616 4437 ft 191 kts 174°
2026-05-07 16:10 40.14565 -0.13380 4255 ft 185 kts 156°
2026-05-07 16:10 40.13583 -0.12420 4110 ft 173 kts 126°
2026-05-07 16:10 40.13125 -0.11021 3918 ft 166 kts 97°
2026-05-07 16:11 40.13206 -0.09539 3757 ft 164 kts 71°
2026-05-07 16:11 40.13772 -0.08252 3635 ft 165 kts 59°
2026-05-07 16:11 40.14374 -0.06962 3435 ft 166 kts 59°
2026-05-07 16:11 40.14974 -0.05715 3210 ft 157 kts 58°
2026-05-07 16:12 40.15550 -0.04538 2987 ft 151 kts 59°
2026-05-07 16:12 40.16111 -0.03401 2824 ft 148 kts 59°
2026-05-07 16:12 40.16671 -0.02261 2623 ft 148 kts 59°
2026-05-07 16:12 40.17227 -0.01127 2430 ft 148 kts 59°
2026-05-07 16:13 40.17787 0.00008 2230 ft 149 kts 60°
2026-05-07 16:13 40.18344 0.01147 2075 ft 147 kts 59°
2026-05-07 16:13 40.18903 0.02271 1868 ft 148 kts 58°
2026-05-07 16:13 40.19463 0.03404 1650 ft 147 kts 58°
2026-05-07 16:14 40.20014 0.04518 1471 ft 146 kts 59°
2026-05-07 16:14 40.20561 0.05620 1309 ft 143 kts 60°
2026-05-07 16:14 40.21084 0.06688 1190 ft 131 kts 58°
2026-05-07 16:14 40.21495 0.07523 1189 ft 87 kts 57°
2026-05-07 16:15 40.21748 0.08038 1190 ft 55 kts 57°
2026-05-07 16:15 40.21915 0.08378 1190 ft 40 kts 57°
2026-05-07 16:15 40.22021 0.08622 1190 ft 22 kts 81°
2026-05-07 16:15 40.22061 0.08762 1190 ft 12 kts 13°
2026-05-07 16:16 40.22062 0.08678 1190 ft 13 kts 238°
2026-05-07 16:16 40.21992 0.08533 1190 ft 24 kts 237°
2026-05-07 16:16 40.21883 0.08311 1190 ft 34 kts 237°
2026-05-07 16:16 40.21741 0.08024 1189 ft 41 kts 237°
2026-05-07 16:17 40.21578 0.07694 1189 ft 43 kts 237°
2026-05-07 16:17 40.21419 0.07370 1189 ft 42 kts 237°
2026-05-07 16:17 40.21262 0.07051 1189 ft 41 kts 237°
2026-05-07 16:17 40.21111 0.06748 1189 ft 39 kts 237°
2026-05-07 16:18 40.20972 0.06459 1189 ft 36 kts 237°
2026-05-07 16:18 40.20838 0.06189 1189 ft 34 kts 237°
2026-05-07 16:18 40.20690 0.06097 1189 ft 25 kts 153°
2026-05-07 16:18 40.20667 0.06262 1189 ft 21 kts 57°
2026-05-07 16:19 40.20698 0.06385 1189 ft 12 kts 115°
2026-05-07 16:19 40.20647 0.06465 1189 ft 7 kts 105°
2026-05-07 16:19 40.20628 0.06509 1189 ft 6 kts 137°
2026-05-07 16:19 40.20589 0.06544 1189 ft 6 kts 148°
2026-05-07 16:20 40.20577 0.06554 1189 ft 1 kts 147°